Location: Austin
(30.3000°N, 97.7500°W)
Time: 12:04:25
(UTC-05:00)

BlueWalker 3 - Pass Details

Date: 08 April 2026
Orbit: 450 x 457 km, 53.2° (Epoch: 10 April)

Event Time Altitude Azimuth Distance (km) Brightness Sun altitude
Rises 21:48:16 0° 327° (NNW) 2,466 6.4 -24.3°
Reaches altitude 10° 21:50:33 10° 337° (NNW) 1,592 5.1 -24.7°
Enters shadow 21:52:14 22° 356° (N) 1,031 3.8 -25.0°
